Location: Kaltenbach
(49.2000°N, 7.7500°E)
Time: 22:32:49
(UTC+00:00)

Cosmos-2242 - Pass Details

Date: 24 January 2020
Orbit: 590 x 618 km, 82.5° (Epoch: 16 February)

Event Time Altitude Azimuth Distance (km) Brightness Sun altitude
Rises 17:25:19 0° 351° (N) 2,875 6.4 -11.9°
Reaches altitude 10° 17:27:33 10° 352° (N) 1,962 5.6 -12.3°
Maximum altitude 17:31:54 79° 79° (E) 618 2.9 -13.0°
Drops below altitude 10° 17:36:10 10° 167° (SSE) 1,929 5.6 -13.6°
Sets 17:38:21 0° 169° (SSE) 2,822 6.5 -14.0°
